Location: Unspecified
(0.0000°N, 0.0000°E)
Time: 22:29:41
(UTC+00:00)

A-11 Canister half - Pass Details

Date: 07 October 2023
Orbit: 1515 x 1684 km, 47.2° (Epoch: 02 October)

Event Time Altitude Azimuth Distance (km) Brightness Sun altitude
Rises 11:48:38 0° 205° (SSW) 4,930 11.7 84.5°
Reaches altitude 10° 11:52:06 10° 197° (SSW) 3,946 11.4 84.4°
Maximum altitude 12:01:26 41° 131° (SE) 2,289 10.7 83.5°
Drops below altitude 10° 12:10:37 10° 64° (ENE) 3,899 11.2 82.1°
Sets 12:13:59 0° 57° (ENE) 4,866 11.5 81.5°
